GSAT-29

Last updated on Thu Jul 03 2025 00:02:48 GMT+0000 (Coordinated Universal Time)

1 43698U 18089A 25183.56086475 .00000093 00000+0 00000+0 0 9996 2 43698 0.0639 267.5605 0003083 170.1361 100.1392 1.00268161 24292
UTC large
Height (km)
Speed (km/s)
/
Latitude / Longitude
Inclination (degrees)
Orbital Period (minutes)
Azimuth
Elevation
Range (km)
Doppler Factor

Next 0 passes for location: London (51.5072 / 0.1276)

Sorry there are no passes over London.